Location: Blue Mountain Vista Observatory
(40.6992°N, 75.9422°W)
Time: 21:37:11
(UTC-04:00)

IDEFIX/ARIANE 42P - Visible Passes

Search period start: 28 September 2016 00:00
Search period end: 08 October 2016 00:00
Orbit: 786 x 802 km, 98.2° (Epoch: 28 September)

Date Brightness Start Highest point End Pass type
(mag) Time Alt. Az. Time Alt. Az. Time Alt. Az.
28 Sep 6.0 06:17:29 10° ENE 06:20:17 14° E 06:23:04 10° ESE visible
28 Sep 3.8 19:13:27 10° S 19:18:29 49° W 19:23:36 10° NNW visible
30 Sep 5.5 19:58:04 10° SW 20:01:46 19° W 20:05:30 10° NW visible
01 Oct 5.7 06:31:17 10° NE 06:35:06 20° E 06:38:54 10° SE visible
01 Oct 4.4 19:28:28 10° SSW 19:33:14 35° W 19:38:02 10° NNW visible
02 Oct 6.4 06:05:38 10° ENE 06:06:27 10° E 06:07:16 10° E visible
03 Oct 5.7 20:13:58 10° WSW 20:16:36 14° W 20:19:15 10° WNW visible
04 Oct 5.0 19:43:41 10° SSW 19:47:59 26° W 19:52:20 10° NW visible
05 Oct 6.0 06:18:21 10° NE 06:21:19 15° E 06:24:16 10° SE visible
05 Oct 3.8 19:14:29 10° S 19:19:30 47° W 19:24:35 10° NNW visible
07 Oct 5.5 19:59:12 10° SW 20:02:48 19° W 20:06:26 10° NW visible
